Regional Weather Roundup
Issued by NWS

Home | Current Version | Previous Version | Text Only | Print | Product List | Glossary On
Versions: 1 2 3 4 5 6 7 8 9 10 11 12 13 14 15 16 17 18 19 20 21 22 23 24 25 26 27 28 29 30 31 32 33 34 35 36 37 38 39 40 41 42 43 44 45 46 47 48 49 50
000
ASUS45 KBOI 282210
RWRID

IDAHO REGIONAL WEATHER ROUNDUP
NATIONAL WEATHER SERVICE BOISE ID
400 PM MDT TUE MAR 28 2017

NOTE: "FAIR" INDICATES FEW OR NO CLOUDS BELOW 12000 FEET
WITH NO SIGNIFICANT WEATHER AND/OR OBSTRUCTIONS TO VISIBILITY

IDZ012-014-282300-
SOUTHWEST IDAHO


CITY           SKY/WX    TMP DP  RH WIND       PRES   REMARKS
BOISE          MOSUNNY   53  29  39 N13       30.26S
CALDWELL       MOSUNNY   55  33  43 NW12G17   30.27F
MOUNTAIN HOME  SUNNY     56  31  38 NW21G26   30.23F
$$

IDZ016-017-282300-
SOUTHCENTRAL IDAHO


CITY           SKY/WX    TMP DP  RH WIND       PRES   REMARKS
BURLEY         SUNNY     51  25  36 W17G25    30.19F
JEROME         SUNNY     52  25  35 SW17G26   30.21S
TWIN FALLS     SUNNY     50  24  36 W20       30.22S
$$

IDZ019>023-282300-
SOUTHEAST IDAHO


CITY           SKY/WX    TMP DP  RH WIND       PRES   REMARKS
IDAHO FALLS    PTSUNNY   48  28  46 SW9       30.17S
POCATELLO      MOSUNNY   49  30  48 W13       30.20F
REXBURG        SUNNY     48  23  37 VRB5      30.15F
$$

IDZ006-010-011-018-031-032-282300-
CENTRAL IDAHO MOUNTAINS


CITY           SKY/WX    TMP DP  RH WIND       PRES   REMARKS
MCCALL         CLOUDY    41  22  46 S6        30.20F
HAILEY         MOSUNNY   48  25  40 SW7       30.19R
STANLEY          N/A     41  17  38 N8        30.18S
SALMON         SUNNY     52  21  30 CALM      30.13F
CHALLIS        SUNNY     50  19  29 VRB3      30.13F
$$

IDZ002-004-006-007-026-282300-
NORTHERN IDAHO


CITY           SKY/WX    TMP DP  RH WIND       PRES   REMARKS
LEWISTON       CLOUDY    54  36  50 N6        30.23F
LOWELL           N/A     52  42  69 CALM      30.26F
COEUR D`ALENE  LGT RAIN  43  38  82 S9        30.22S
MULLAN PASS    LGT SNOW  29  28  96 SW8       30.14F FOG     WCI  21
$$



USA.gov is the U.S. government's official web portal to all federal, state and local government web resources and services.